AAY1142 KTRI-KPIE

Flight info

Callsign AAY1142
Flight time 1h 27m
Altitude 38000
Route SUG IRQ TEUFL BAAMF DADES2
Aircraft A320/M-VGDW/C

Departure

Time 2026-04-20 22:23
Airport Tri-Cities Regional TN/VA Airport (KTRI)

Arrival

Time 2026-04-20 23:50
Airport St. Petersburg Clearwater International Airport (KPIE)
Time Latitude Longitude Altitude Speed Heading
2026-04-20 21:57 36.47986 -82.40657 1523 ft 0 kts
2026-04-20 22:15 36.47981 -82.40658 1523 ft 2 kts
2026-04-20 22:15 36.47964 -82.40660 1522 ft 2 kts
2026-04-20 22:16 36.47947 -82.40663 1522 ft 3 kts 19°
2026-04-20 22:16 36.47931 -82.40673 1523 ft 3 kts 53°
2026-04-20 22:16 36.47924 -82.40692 1523 ft 3 kts 88°
2026-04-20 22:16 36.47924 -82.40706 1523 ft 0 kts 99°
2026-04-20 22:19 36.47922 -82.40689 1523 ft 5 kts 99°
2026-04-20 22:19 36.47921 -82.40643 1520 ft 5 kts 86°
2026-04-20 22:19 36.47942 -82.40595 1521 ft 8 kts 40°
2026-04-20 22:19 36.48002 -82.40580 1523 ft 11 kts
2026-04-20 22:20 36.48072 -82.40524 1523 ft 14 kts 44°
2026-04-20 22:20 36.48152 -82.40429 1522 ft 17 kts 43°
2026-04-20 22:20 36.48224 -82.40326 1524 ft 13 kts 78°
2026-04-20 22:20 36.48232 -82.40253 1521 ft 7 kts 82°
2026-04-20 22:21 36.48233 -82.40199 1526 ft 8 kts 104°
2026-04-20 22:21 36.48177 -82.40134 1525 ft 13 kts 141°
2026-04-20 22:21 36.48103 -82.40129 1526 ft 11 kts 212°
2026-04-20 22:21 36.48059 -82.40178 1523 ft 0 kts 223°
2026-04-20 22:22 36.48054 -82.40183 1521 ft 2 kts 223°
2026-04-20 22:22 36.48025 -82.40218 1524 ft 20 kts 224°
2026-04-20 22:22 36.47740 -82.40547 1519 ft 92 kts 222°
2026-04-20 22:22 36.47107 -82.41259 1510 ft 150 kts 223°
2026-04-20 22:23 36.46283 -82.42202 1983 ft 162 kts 226°
2026-04-20 22:23 36.45405 -82.43134 2617 ft 172 kts 226°
2026-04-20 22:23 36.44514 -82.44122 3321 ft 175 kts 228°
2026-04-20 22:23 36.43538 -82.45185 3722 ft 201 kts 220°
2026-04-20 22:24 36.42098 -82.45729 4276 ft 238 kts 182°
2026-04-20 22:24 36.40357 -82.45539 4737 ft 264 kts 175°
2026-04-20 22:24 36.38477 -82.45190 5461 ft 279 kts 173°
2026-04-20 22:24 36.36552 -82.44786 6435 ft 283 kts 173°
2026-04-20 22:25 36.34591 -82.44371 7371 ft 289 kts 174°
2026-04-20 22:25 36.32589 -82.43965 8257 ft 295 kts 175°
2026-04-20 22:25 36.30568 -82.43569 9112 ft 302 kts 175°
2026-04-20 22:25 36.28469 -82.43166 9955 ft 308 kts 176°
2026-04-20 22:26 36.26289 -82.42759 10448 ft 328 kts 176°
2026-04-20 22:26 36.23945 -82.42332 10745 ft 352 kts 176°
2026-04-20 22:26 36.21454 -82.41876 11160 ft 369 kts 176°
2026-04-20 22:27 36.16281 -82.40900 12621 ft 380 kts 175°
2026-04-20 22:27 36.13656 -82.40394 13357 ft 384 kts 176°
2026-04-20 22:27 36.10997 -82.39886 14118 ft 388 kts 176°
2026-04-20 22:27 36.08313 -82.39378 14811 ft 392 kts 175°
2026-04-20 22:28 36.05605 -82.38871 15498 ft 396 kts 176°
2026-04-20 22:28 36.02868 -82.38364 16131 ft 400 kts 176°
2026-04-20 22:28 36.00100 -82.37853 16778 ft 404 kts 177°
2026-04-20 22:28 35.97306 -82.37336 17422 ft 408 kts 177°
2026-04-20 22:29 35.94483 -82.36815 18058 ft 412 kts 177°
2026-04-20 22:29 35.91636 -82.36288 18653 ft 416 kts 177°
2026-04-20 22:29 35.88762 -82.35755 19189 ft 420 kts 177°
2026-04-20 22:29 35.85859 -82.35218 19737 ft 424 kts 177°
2026-04-20 22:30 35.82932 -82.34676 20266 ft 427 kts 178°
2026-04-20 22:30 35.79974 -82.34128 20802 ft 431 kts 177°
2026-04-20 22:30 35.77003 -82.33573 21326 ft 434 kts 178°
2026-04-20 22:30 35.74008 -82.33015 21807 ft 437 kts 178°
2026-04-20 22:31 35.70988 -82.32455 22269 ft 441 kts 178°
2026-04-20 22:31 35.67938 -82.31890 22792 ft 445 kts 178°
2026-04-20 22:31 35.64865 -82.31323 23327 ft 448 kts 178°
2026-04-20 22:31 35.61818 -82.30763 23809 ft 451 kts 179°
2026-04-20 22:32 35.58703 -82.30191 24229 ft 454 kts 179°
2026-04-20 22:32 35.55571 -82.29618 24655 ft 456 kts 179°
2026-04-20 22:32 35.52429 -82.29042 25093 ft 458 kts 179°
2026-04-20 22:32 35.49273 -82.28460 25487 ft 460 kts 178°
2026-04-20 22:33 35.46100 -82.27871 25901 ft 461 kts 179°
2026-04-20 22:33 35.42922 -82.27282 26334 ft 463 kts 179°
2026-04-20 22:33 35.39731 -82.26797 26763 ft 459 kts 184°
2026-04-20 22:33 35.36536 -82.26583 27162 ft 460 kts 185°
2026-04-20 22:34 35.33337 -82.26377 27589 ft 461 kts 185°
2026-04-20 22:34 35.30131 -82.26177 27944 ft 463 kts 185°
2026-04-20 22:34 35.26905 -82.25979 28328 ft 464 kts 185°
2026-04-20 22:34 35.23668 -82.25780 28691 ft 466 kts 185°
2026-04-20 22:35 35.20419 -82.25576 29039 ft 468 kts 185°
2026-04-20 22:35 35.17163 -82.25370 29405 ft 469 kts 185°
2026-04-20 22:35 35.13891 -82.25160 29766 ft 471 kts 186°
2026-04-20 22:35 35.10615 -82.24949 30118 ft 472 kts 186°
2026-04-20 22:36 35.07331 -82.24739 30462 ft 472 kts 186°
2026-04-20 22:36 35.04055 -82.24530 30870 ft 470 kts 186°
2026-04-20 22:36 35.00798 -82.24321 31319 ft 467 kts 186°
2026-04-20 22:36 34.97558 -82.24111 31756 ft 465 kts 186°
2026-04-20 22:37 34.94341 -82.23905 32182 ft 462 kts 186°
2026-04-20 22:37 34.91168 -82.23707 32602 ft 460 kts 187°
2026-04-20 22:37 34.87942 -82.23508 33058 ft 457 kts 187°
2026-04-20 22:37 34.84814 -82.23315 33491 ft 455 kts 187°
2026-04-20 22:38 34.81659 -82.23117 33909 ft 453 kts 187°
2026-04-20 22:38 34.78520 -82.22918 34324 ft 450 kts 187°
2026-04-20 22:38 34.75393 -82.22717 34682 ft 448 kts 187°
2026-04-20 22:38 34.72275 -82.22519 34999 ft 448 kts 187°
2026-04-20 22:39 34.69160 -82.22323 35291 ft 448 kts 187°
2026-04-20 22:39 34.66055 -82.22127 35578 ft 447 kts 187°
2026-04-20 22:39 34.62946 -82.21929 35873 ft 447 kts 187°
2026-04-20 22:39 34.59843 -82.21734 36139 ft 446 kts 188°
2026-04-20 22:40 34.56742 -82.21540 36372 ft 447 kts 188°
2026-04-20 22:40 34.53637 -82.21348 36614 ft 447 kts 188°
2026-04-20 22:40 34.50533 -82.21157 36910 ft 446 kts 188°
2026-04-20 22:40 34.47438 -82.20965 37169 ft 445 kts 188°
2026-04-20 22:41 34.44334 -82.20768 37415 ft 446 kts 188°
2026-04-20 22:41 34.41239 -82.20573 37634 ft 445 kts 188°
2026-04-20 22:41 34.38148 -82.20381 37880 ft 445 kts 188°
2026-04-20 22:41 34.35057 -82.20192 38115 ft 444 kts 188°
2026-04-20 22:42 34.31967 -82.20001 38221 ft 445 kts 188°
2026-04-20 22:42 34.28874 -82.19806 38235 ft 445 kts 188°
2026-04-20 22:42 34.22684 -82.19413 38236 ft 444 kts 188°
2026-04-20 22:43 34.16519 -82.19037 38233 ft 443 kts 188°
2026-04-20 22:43 34.10360 -82.18657 38232 ft 442 kts 188°
2026-04-20 22:44 34.04213 -82.18270 38228 ft 443 kts 188°
2026-04-20 22:44 33.98065 -82.17895 38237 ft 442 kts 188°
2026-04-20 22:45 33.91924 -82.17524 38236 ft 442 kts 188°
2026-04-20 22:45 33.85784 -82.17142 38240 ft 441 kts 188°
2026-04-20 22:46 33.79698 -82.16760 38236 ft 440 kts 188°
2026-04-20 22:46 33.73580 -82.16378 38250 ft 440 kts 188°
2026-04-20 22:47 33.67471 -82.15981 38251 ft 439 kts 188°
2026-04-20 22:47 33.61358 -82.15498 38260 ft 440 kts 187°
2026-04-20 22:48 33.55254 -82.14973 38261 ft 439 kts 187°
2026-04-20 22:48 33.49163 -82.14471 38266 ft 438 kts 187°
2026-04-20 22:49 33.43128 -82.13991 38262 ft 437 kts 187°
2026-04-20 22:49 33.37055 -82.13511 38262 ft 437 kts 188°
2026-04-20 22:50 33.30951 -82.13031 38238 ft 437 kts 188°
2026-04-20 22:50 33.24883 -82.12556 38241 ft 436 kts 188°
2026-04-20 22:51 33.18863 -82.12087 38235 ft 436 kts 188°
2026-04-20 22:51 33.12807 -82.11607 38249 ft 436 kts 188°
2026-04-20 22:52 33.06742 -82.11128 38234 ft 436 kts 188°
2026-04-20 22:52 33.00686 -82.10645 38240 ft 436 kts 188°
2026-04-20 22:53 32.94624 -82.10169 38235 ft 436 kts 188°
2026-04-20 22:53 32.88558 -82.09693 38241 ft 436 kts 188°
2026-04-20 22:54 32.82496 -82.09220 38234 ft 437 kts 188°
2026-04-20 22:54 32.77417 -82.08822 38238 ft 437 kts 188°
2026-04-20 22:55 32.71343 -82.08345 38234 ft 437 kts 188°
2026-04-20 22:55 32.65270 -82.07867 38240 ft 438 kts 188°
2026-04-20 22:56 32.59230 -82.07396 38240 ft 438 kts 188°
2026-04-20 22:56 32.53147 -82.06931 38248 ft 438 kts 188°
2026-04-20 22:57 32.47052 -82.06462 38245 ft 439 kts 188°
2026-04-20 22:57 32.40946 -82.05988 38246 ft 440 kts 188°
2026-04-20 22:58 32.34821 -82.05518 38242 ft 442 kts 189°
2026-04-20 22:58 32.28677 -82.05039 38242 ft 443 kts 189°
2026-04-20 22:59 32.22520 -82.04562 38237 ft 444 kts 189°
2026-04-20 22:59 32.16339 -82.04085 38234 ft 445 kts 189°
2026-04-20 23:00 32.10149 -82.03602 38235 ft 446 kts 189°
2026-04-20 23:00 32.03957 -82.03125 38244 ft 446 kts 189°
2026-04-20 23:01 31.97755 -82.02645 38233 ft 446 kts 189°
2026-04-20 23:01 31.91555 -82.02171 38254 ft 447 kts 189°
2026-04-20 23:02 31.85451 -82.02167 38260 ft 426 kts 201°
2026-04-20 23:02 31.79785 -82.03529 38263 ft 417 kts 205°
2026-04-20 23:03 31.74116 -82.04979 38264 ft 417 kts 205°
2026-04-20 23:03 31.68439 -82.06406 38266 ft 417 kts 204°
2026-04-20 23:04 31.62766 -82.07839 38273 ft 417 kts 205°
2026-04-20 23:04 31.57081 -82.09279 38276 ft 417 kts 205°
2026-04-20 23:05 31.51399 -82.10711 38292 ft 418 kts 205°
2026-04-20 23:05 31.45708 -82.12143 38272 ft 418 kts 205°
2026-04-20 23:06 31.40051 -82.13564 38271 ft 418 kts 205°
2026-04-20 23:06 31.34347 -82.14988 38250 ft 419 kts 205°
2026-04-20 23:07 31.28645 -82.16411 38253 ft 419 kts 205°
2026-04-20 23:07 31.22942 -82.17841 38247 ft 419 kts 205°
2026-04-20 23:08 31.17238 -82.19264 38255 ft 419 kts 205°
2026-04-20 23:08 31.11525 -82.20686 38266 ft 420 kts 205°
2026-04-20 23:09 31.05814 -82.22116 38281 ft 420 kts 205°
2026-04-20 23:09 31.00131 -82.23534 38305 ft 421 kts 205°
2026-04-20 23:10 30.94367 -82.24966 38337 ft 421 kts 205°
2026-04-20 23:10 30.88636 -82.26390 38347 ft 421 kts 205°
2026-04-20 23:11 30.82937 -82.27800 38354 ft 421 kts 204°
2026-04-20 23:11 30.77203 -82.29214 38357 ft 421 kts 204°
2026-04-20 23:12 30.71467 -82.30629 38368 ft 421 kts 204°
2026-04-20 23:12 30.65680 -82.31918 38368 ft 431 kts 199°
2026-04-20 23:13 30.59714 -82.32671 38373 ft 432 kts 198°
2026-04-20 23:13 30.53730 -82.33399 38389 ft 432 kts 198°
2026-04-20 23:14 30.47748 -82.34139 38383 ft 432 kts 199°
2026-04-20 23:14 30.41760 -82.34887 38353 ft 433 kts 199°
2026-04-20 23:15 30.35769 -82.35635 38329 ft 433 kts 198°
2026-04-20 23:15 30.29761 -82.36380 38303 ft 434 kts 198°
2026-04-20 23:16 30.23784 -82.37122 38290 ft 435 kts 198°
2026-04-20 23:16 30.17755 -82.37849 38282 ft 439 kts 195°
2026-04-20 23:17 30.14649 -82.37837 38215 ft 451 kts 189°
2026-04-20 23:17 30.11521 -82.37667 37940 ft 450 kts 189°
2026-04-20 23:17 30.08387 -82.37484 37671 ft 451 kts 189°
2026-04-20 23:17 30.05253 -82.37298 37406 ft 451 kts 189°
2026-04-20 23:18 30.02119 -82.37115 37142 ft 451 kts 189°
2026-04-20 23:18 29.98989 -82.36937 36894 ft 451 kts 189°
2026-04-20 23:18 29.95851 -82.36761 36638 ft 452 kts 189°
2026-04-20 23:18 29.92704 -82.36585 36383 ft 452 kts 188°
2026-04-20 23:19 29.89562 -82.36411 36131 ft 452 kts 188°
2026-04-20 23:19 29.86414 -82.36238 35883 ft 453 kts 188°
2026-04-20 23:19 29.83261 -82.36065 35636 ft 453 kts 188°
2026-04-20 23:19 29.80116 -82.35892 35390 ft 453 kts 188°
2026-04-20 23:20 29.76957 -82.35718 34735 ft 456 kts 188°
2026-04-20 23:20 29.73768 -82.35549 33797 ft 460 kts 188°
2026-04-20 23:20 29.70543 -82.35380 32714 ft 466 kts 187°
2026-04-20 23:20 29.67284 -82.35205 31657 ft 471 kts 186°
2026-04-20 23:21 29.63990 -82.35022 30572 ft 477 kts 186°
2026-04-20 23:21 29.60649 -82.34834 29449 ft 482 kts 185°
2026-04-20 23:21 29.57331 -82.34639 28885 ft 474 kts 185°
2026-04-20 23:21 29.54063 -82.34441 28311 ft 468 kts 185°
2026-04-20 23:22 29.50821 -82.34250 27739 ft 464 kts 185°
2026-04-20 23:22 29.47615 -82.34068 27184 ft 460 kts 185°
2026-04-20 23:22 29.44432 -82.33897 26638 ft 456 kts 185°
2026-04-20 23:22 29.41275 -82.33730 26100 ft 453 kts 185°
2026-04-20 23:23 29.38180 -82.33522 25583 ft 451 kts 183°
2026-04-20 23:23 29.35057 -82.33209 25071 ft 450 kts 181°
2026-04-20 23:23 29.31952 -82.32822 24563 ft 447 kts 180°
2026-04-20 23:23 29.28870 -82.32401 24067 ft 445 kts 180°
2026-04-20 23:24 29.25810 -82.31981 23525 ft 441 kts 180°
2026-04-20 23:24 29.22772 -82.31581 22948 ft 438 kts 180°
2026-04-20 23:24 29.19756 -82.31205 22371 ft 434 kts 180°
2026-04-20 23:24 29.16767 -82.30850 21816 ft 430 kts 180°
2026-04-20 23:25 29.13806 -82.30504 21263 ft 426 kts 180°
2026-04-20 23:25 29.10867 -82.30158 20725 ft 423 kts 180°
2026-04-20 23:25 29.07953 -82.29813 20196 ft 420 kts 180°
2026-04-20 23:25 29.05060 -82.29471 19674 ft 416 kts 180°
2026-04-20 23:26 29.02187 -82.29130 19160 ft 413 kts 180°
2026-04-20 23:26 28.99338 -82.28792 18658 ft 410 kts 180°
2026-04-20 23:26 28.96508 -82.28459 18089 ft 407 kts 180°
2026-04-20 23:26 28.93701 -82.28127 17528 ft 404 kts 179°
2026-04-20 23:27 28.90918 -82.27798 16967 ft 401 kts 179°
2026-04-20 23:27 28.88162 -82.27471 16411 ft 395 kts 179°
2026-04-20 23:27 28.85482 -82.27148 15873 ft 379 kts 179°
2026-04-20 23:27 28.82905 -82.26836 15343 ft 364 kts 178°
2026-04-20 23:28 28.80429 -82.26539 14826 ft 352 kts 178°
2026-04-20 23:28 28.78032 -82.26255 14314 ft 341 kts 178°
2026-04-20 23:28 28.75703 -82.25983 13780 ft 332 kts 178°
2026-04-20 23:28 28.73432 -82.25772 13245 ft 321 kts 184°
2026-04-20 23:29 28.71221 -82.25761 13079 ft 315 kts 183°
2026-04-20 23:29 28.69034 -82.25736 13085 ft 314 kts 183°
2026-04-20 23:29 28.66847 -82.25703 13086 ft 315 kts 183°
2026-04-20 23:29 28.64654 -82.25668 13085 ft 315 kts 183°
2026-04-20 23:30 28.62465 -82.25632 13083 ft 314 kts 183°
2026-04-20 23:30 28.60275 -82.25589 13081 ft 315 kts 183°
2026-04-20 23:30 28.58083 -82.25543 13065 ft 315 kts 182°
2026-04-20 23:30 28.55893 -82.25495 13076 ft 315 kts 182°
2026-04-20 23:31 28.53700 -82.25451 13060 ft 315 kts 183°
2026-04-20 23:31 28.51511 -82.25412 13058 ft 315 kts 183°
2026-04-20 23:31 28.49311 -82.25380 12745 ft 317 kts 183°
2026-04-20 23:31 28.47112 -82.25354 12462 ft 314 kts 182°
2026-04-20 23:32 28.44937 -82.25327 12388 ft 312 kts 182°
2026-04-20 23:32 28.42755 -82.25301 12315 ft 321 kts 182°
2026-04-20 23:32 28.40418 -82.25284 12240 ft 357 kts 182°
2026-04-20 23:32 28.37881 -82.25273 12174 ft 367 kts 182°
2026-04-20 23:33 28.35383 -82.25229 11980 ft 351 kts 182°
2026-04-20 23:33 28.33019 -82.25212 11731 ft 329 kts 182°
2026-04-20 23:33 28.30792 -82.25226 11488 ft 317 kts 183°
2026-04-20 23:33 28.28525 -82.25267 11217 ft 328 kts 184°
2026-04-20 23:34 28.26296 -82.25311 10931 ft 311 kts 183°
2026-04-20 23:34 28.24160 -82.25262 10472 ft 307 kts 176°
2026-04-20 23:34 28.22049 -82.24951 10185 ft 304 kts 174°
2026-04-20 23:34 28.19957 -82.24614 9832 ft 303 kts 173°
2026-04-20 23:35 28.17876 -82.24283 9457 ft 302 kts 173°
2026-04-20 23:35 28.13757 -82.24154 8759 ft 295 kts 200°
2026-04-20 23:35 28.11934 -82.25158 8382 ft 291 kts 212°
2026-04-20 23:36 28.10202 -82.26336 7946 ft 290 kts 213°
2026-04-20 23:36 28.08498 -82.27534 7536 ft 289 kts 213°
2026-04-20 23:36 28.06814 -82.28735 7243 ft 290 kts 213°
2026-04-20 23:36 28.05117 -82.29958 7064 ft 289 kts 213°
2026-04-20 23:37 28.03421 -82.31186 7032 ft 290 kts 213°
2026-04-20 23:37 28.01717 -82.32418 7035 ft 291 kts 213°
2026-04-20 23:37 28.00010 -82.33650 7038 ft 291 kts 213°
2026-04-20 23:37 27.98302 -82.34886 7036 ft 291 kts 213°
2026-04-20 23:38 27.96613 -82.36109 7036 ft 292 kts 213°
2026-04-20 23:38 27.94907 -82.37345 7035 ft 292 kts 214°
2026-04-20 23:38 27.93194 -82.38584 7026 ft 292 kts 213°
2026-04-20 23:38 27.91483 -82.39821 7024 ft 292 kts 213°
2026-04-20 23:39 27.89773 -82.41062 7027 ft 292 kts 214°
2026-04-20 23:39 27.88065 -82.42303 7026 ft 292 kts 213°
2026-04-20 23:39 27.86350 -82.43547 7010 ft 293 kts 213°
2026-04-20 23:39 27.84640 -82.44794 6614 ft 293 kts 213°
2026-04-20 23:40 27.83509 -82.45625 6322 ft 292 kts 213°
2026-04-20 23:40 27.81813 -82.46877 5924 ft 290 kts 213°
2026-04-20 23:40 27.80132 -82.48118 5544 ft 287 kts 213°
2026-04-20 23:40 27.78471 -82.49355 5153 ft 285 kts 214°
2026-04-20 23:41 27.76827 -82.50581 4993 ft 283 kts 213°
2026-04-20 23:41 27.75184 -82.51811 5008 ft 284 kts 213°
2026-04-20 23:41 27.73002 -82.53443 5007 ft 284 kts 213°
2026-04-20 23:41 27.71886 -82.54280 5009 ft 284 kts 214°
2026-04-20 23:42 27.70238 -82.55515 5011 ft 284 kts 214°
2026-04-20 23:42 27.68594 -82.56754 5010 ft 284 kts 214°
2026-04-20 23:42 27.66973 -82.57978 5009 ft 284 kts 213°
2026-04-20 23:42 27.65331 -82.59222 5011 ft 284 kts 214°
2026-04-20 23:43 27.63915 -82.60755 4976 ft 282 kts 236°
2026-04-20 23:43 27.62944 -82.62655 4665 ft 276 kts 249°
2026-04-20 23:43 27.62570 -82.64691 4534 ft 258 kts 276°
2026-04-20 23:43 27.62963 -82.66590 4406 ft 241 kts 298°
2026-04-20 23:44 27.63879 -82.68078 4276 ft 224 kts 322°
2026-04-20 23:44 27.65152 -82.68975 4117 ft 211 kts 346°
2026-04-20 23:44 27.66539 -82.69240 4026 ft 196 kts
2026-04-20 23:44 27.67844 -82.69043 4009 ft 186 kts 13°
2026-04-20 23:45 27.69117 -82.68817 4010 ft 185 kts 13°
2026-04-20 23:45 27.70348 -82.68605 4024 ft 171 kts 13°
2026-04-20 23:45 27.71472 -82.68415 4016 ft 158 kts 12°
2026-04-20 23:45 27.72553 -82.68222 3765 ft 164 kts 14°
2026-04-20 23:46 27.73716 -82.67861 3300 ft 178 kts 24°
2026-04-20 23:46 27.74881 -82.67353 3029 ft 180 kts 22°
2026-04-20 23:46 27.76063 -82.66896 2691 ft 178 kts 22°
2026-04-20 23:46 27.77226 -82.66515 2387 ft 170 kts 13°
2026-04-20 23:47 27.78360 -82.66682 2236 ft 161 kts 352°
2026-04-20 23:47 27.79414 -82.66877 2050 ft 148 kts 359°
2026-04-20 23:47 27.80407 -82.67034 1867 ft 142 kts 359°
2026-04-20 23:47 27.81378 -82.67193 1694 ft 140 kts 359°
2026-04-20 23:48 27.82341 -82.67355 1500 ft 139 kts 359°
2026-04-20 23:48 27.83284 -82.67515 1322 ft 136 kts 358°
2026-04-20 23:48 27.84209 -82.67674 1162 ft 131 kts 358°
2026-04-20 23:48 27.85100 -82.67827 987 ft 128 kts 359°
2026-04-20 23:49 27.85976 -82.67977 821 ft 126 kts 358°
2026-04-20 23:49 27.86862 -82.68127 666 ft 130 kts 358°
2026-04-20 23:49 27.87759 -82.68281 489 ft 133 kts 357°
2026-04-20 23:49 27.88664 -82.68437 313 ft 132 kts 359°
2026-04-20 23:50 27.89578 -82.68595 153 ft 133 kts 355°
2026-04-20 23:50 27.90479 -82.68749 29 ft 123 kts 352°
2026-04-20 23:50 27.91166 -82.68855 23 ft 75 kts 353°
2026-04-20 23:50 27.91526 -82.68927 21 ft 29 kts 350°
2026-04-20 23:51 27.91561 -82.68992 24 ft 2 kts 236°
2026-04-20 23:51 27.91532 -82.69062 24 ft 14 kts 237°
2026-04-20 23:51 27.91450 -82.69075 24 ft 12 kts 173°
2026-04-20 23:51 27.91363 -82.69058 24 ft 14 kts 169°
2026-04-20 23:52 27.91251 -82.69036 24 ft 19 kts 171°
2026-04-20 23:52 27.91125 -82.69016 24 ft 18 kts 171°
2026-04-20 23:52 27.91007 -82.68995 24 ft 16 kts 171°
2026-04-20 23:52 27.90899 -82.68977 26 ft 15 kts 172°
2026-04-20 23:53 27.90826 -82.68965 24 ft 5 kts 172°
2026-04-20 23:53 27.90810 -82.68972 24 ft 1 kts 255°
2026-04-20 23:53 27.90817 -82.69002 24 ft 8 kts 285°
2026-04-20 23:53 27.90816 -82.69059 24 ft 7 kts 220°
2026-04-20 23:54 27.90776 -82.69065 24 ft 6 kts 178°
2026-04-20 23:54 27.90762 -82.69065 24 ft 0 kts 177°